datetime,flow
1939-06-02,721.0
1939-06-03,483.0
1939-06-04,473.0
1939-06-05,466.0
1939-06-06,458.0
1939-06-07,451.0
1939-06-08,444.0
1939-06-09,444.0
1939-06-10,480.0
1939-06-11,422.0
1939-06-12,451.0
1939-06-13,395.0
1939-06-14,473.0
1939-06-15,560.0
1939-06-16,568.0
1939-06-17,568.0
1939-06-18,512.0
1939-06-19,536.0
1939-06-20,544.0
1939-06-21,466.0
1939-06-22,285.0
1939-06-23,444.0
1939-06-24,323.0
1939-06-25,276.0
1939-06-26,280.0
1939-06-27,196.0
1939-06-28,146.0
1939-06-29,131.0
1939-06-30,110.0
1939-07-01,208.0
1939-07-02,159.0
1939-07-03,204.0
1939-07-04,98.0
1939-07-05,51.0
1939-07-06,35.0
1939-07-07,87.0
1939-07-08,137.0
1939-07-09,153.0
1939-07-10,53.0
1939-07-11,31.0
1939-07-12,22.0
1939-07-13,21.0
1939-07-14,21.0
1939-07-15,19.0
1939-07-16,18.0
1939-07-17,15.0
1939-07-18,15.0
1939-07-19,14.0
1939-07-20,14.0
1939-07-21,17.0
1939-07-22,17.0
1939-07-23,17.0
1939-07-24,14.0
1939-07-25,14.0
1939-07-26,25.0
1939-07-27,22.0
1939-07-28,19.0
1939-07-29,18.0
1939-07-30,17.0
1939-07-31,17.0
1939-08-01,17.0
1939-08-02,23.0
1939-08-03,185.0
1939-08-04,355.0
1939-08-05,139.0
1939-08-06,43.0
1939-08-07,16.0
1939-08-08,11.0
1939-08-09,11.0
1939-08-10,11.0
1939-08-11,12.0
1939-08-12,13.0
1939-08-13,15.0
1939-08-14,29.0
1939-08-15,21.0
1939-08-16,20.0
1939-08-17,17.0
1939-08-18,14.0
1939-08-19,14.0
1939-08-20,729.0
1939-08-21,409.0
1939-08-22,122.0
1939-08-23,49.0
1939-08-24,28.0
1939-08-25,23.0
1939-08-26,21.0
1939-08-27,19.0
1939-08-28,18.0
1939-08-29,17.0
1939-08-30,16.0
1939-08-31,14.0
1939-09-01,13.0
1939-09-02,12.0
1939-09-03,11.0
1939-09-04,10.0
1939-09-05,10.0
1939-09-06,23.0
1939-09-07,22.0
1939-09-08,23.0
1939-09-09,25.0
1939-09-10,27.0
1939-09-11,26.0
1939-09-12,25.0
1939-09-13,22.0
1939-09-14,22.0
1939-09-15,22.0
1939-09-16,42.0
1939-09-17,51.0
1939-09-18,40.0
1939-09-19,36.0
1939-09-20,35.0
1939-09-21,33.0
1939-09-22,29.0
1939-09-23,30.0
1939-09-24,38.0
1939-09-25,39.0
1939-09-26,39.0
1939-09-27,36.0
1939-09-28,35.0
1939-09-29,30.0
1939-09-30,31.0
1939-10-01,31.0
1939-10-02,33.0
1939-10-03,29.0
1939-10-04,28.0
1939-10-05,30.0
1939-10-06,31.0
1939-10-07,32.0
1939-10-08,32.0
1939-10-09,39.0
1939-10-10,40.0
1939-10-11,39.0
1939-10-12,39.0
1939-10-13,39.0
1939-10-14,36.0
1939-10-15,36.0
1939-10-16,34.0
1939-10-17,34.0
1939-10-18,36.0
1939-10-19,34.0
1939-10-20,36.0
1939-10-21,37.0
1939-10-22,31.0
1939-10-23,25.0
1939-10-24,18.0
1939-10-25,18.0
1939-10-26,18.0
1939-10-27,15.0
1939-10-28,14.0
1939-10-29,14.0
1939-10-30,14.0
1939-10-31,14.0
1939-11-01,14.0
1939-11-02,14.0
1939-11-03,14.0
1939-11-04,14.0
1939-11-05,14.0
1939-11-06,14.0
1939-11-07,14.0
1939-11-08,14.0
1939-11-09,14.0
1939-11-10,14.0
1939-11-11,14.0
1939-11-12,14.0
1939-11-13,14.0
1939-11-14,14.0
1939-11-15,15.0
1939-11-16,16.0
1939-11-17,16.0
1939-11-18,15.0
1939-11-19,15.0
1939-11-20,15.0
1939-11-21,15.0
1939-11-22,16.0
1939-11-23,17.0
1939-11-24,18.0
1939-11-25,19.0
1939-11-26,19.0
1939-11-27,18.0
1939-11-28,25.0
1939-11-29,20.0
1939-11-30,20.0
1939-12-01,20.0
1939-12-02,20.0
1939-12-03,20.0
1939-12-04,19.0
1939-12-05,22.0
1939-12-06,24.0
1939-12-07,27.0
1939-12-08,30.0
1939-12-09,32.0
1939-12-10,29.0
1939-12-11,26.0
1939-12-12,21.0
1939-12-13,18.0
1939-12-14,15.0
1939-12-15,16.0
1939-12-16,18.0
1939-12-17,18.0
1939-12-18,18.0
1939-12-19,17.0
1939-12-20,22.0
1939-12-21,24.0
1939-12-22,37.0
1939-12-23,56.0
1939-12-24,69.0
1939-12-25,59.0
1939-12-26,141.0
1939-12-27,63.0
1939-12-28,79.0
1939-12-29,56.0
1939-12-30,59.0
1939-12-31,67.0
1940-01-01,66.0
1940-01-02,59.0
1940-01-03,53.0
1940-01-04,99.0
1940-01-05,112.0
1940-01-06,246.0
1940-01-07,99.0
1940-01-08,86.0
1940-01-09,81.0
1940-01-10,49.0
1940-01-11,51.0
1940-01-12,63.0
1940-01-13,71.0
1940-01-14,81.0
1940-01-15,67.0
1940-01-16,42.0
1940-01-17,37.0
1940-01-18,40.0
1940-01-19,123.0
1940-01-20,52.0
1940-01-21,42.0
1940-01-22,41.0
1940-01-23,43.0
1940-01-24,41.0
1940-01-25,40.0
1940-01-26,41.0
1940-01-27,43.0
1940-01-28,45.0
1940-01-29,46.0
1940-01-30,43.0
1940-01-31,46.0
1940-02-01,56.0
1940-02-02,171.0
1940-02-03,194.0
1940-02-04,136.0
1940-02-05,128.0
1940-02-06,112.0
1940-02-07,112.0
1940-02-08,101.0
1940-02-09,80.0
1940-02-10,78.0
1940-02-11,75.0
1940-02-12,59.0
1940-02-13,54.0
1940-02-14,50.0
1940-02-15,48.0
1940-02-16,46.0
1940-02-17,45.0
1940-02-18,49.0
1940-02-19,50.0
1940-02-20,52.0
1940-02-21,54.0
1940-02-22,56.0
1940-02-23,64.0
1940-02-24,73.0
1940-02-25,103.0
1940-02-26,132.0
1940-02-27,132.0
1940-02-28,101.0
1940-02-29,56.0
1940-03-01,51.0
1940-03-02,51.0
1940-03-03,68.0
1940-03-04,62.0
1940-03-05,60.0
1940-03-06,65.0
1940-03-07,68.0
1940-03-08,65.0
1940-03-09,65.0
1940-03-10,58.0
1940-03-11,58.0
1940-03-12,59.0
1940-03-13,60.0
1940-03-14,68.0
1940-03-15,95.0
1940-03-16,71.0
1940-03-17,46.0
1940-03-18,43.0
1940-03-19,41.0
1940-03-20,36.0
1940-03-21,32.0
1940-03-22,24.0
1940-03-23,19.0
1940-03-24,17.0
1940-03-25,17.0
1940-03-26,16.0
1940-03-27,15.0
1940-03-28,14.0
1940-03-29,12.0
1940-03-30,14.0
1940-03-31,14.0
1940-04-01,14.0
1940-04-02,14.0
1940-04-03,14.0
1940-04-04,14.0
1940-04-05,14.0
1940-04-06,13.0
1940-04-07,12.0
1940-04-08,12.0
1940-04-09,11.0
1940-04-10,14.0
1940-04-11,19.0
1940-04-12,24.0
1940-04-13,29.0
1940-04-14,17.0
1940-04-15,22.0
1940-04-16,28.0
1940-04-17,68.0
1940-04-18,70.0
1940-04-19,50.0
1940-04-20,78.0
1940-04-21,70.0
1940-04-22,52.0
1940-04-23,40.0
1940-04-24,28.0
1940-04-25,18.0
1940-04-26,17.0
1940-04-27,17.0
1940-04-28,15.0
1940-04-29,14.0
1940-04-30,14.0
1940-05-01,14.0
1940-05-02,14.0
1940-05-03,14.0
1940-05-04,13.0
1940-05-05,14.0
1940-05-06,17.0
1940-05-07,18.0
1940-05-08,21.0
1940-05-09,23.0
1940-05-10,13.0
1940-05-11,11.0
1940-05-12,12.0
1940-05-13,12.0
1940-05-14,12.0
1940-05-15,12.0
1940-05-16,21.0
1940-05-17,144.0
1940-05-18,220.0
1940-05-19,233.0
1940-05-20,223.0
1940-05-21,312.0
1940-05-22,292.0
1940-05-23,164.0
1940-05-24,124.0
1940-05-25,111.0
1940-05-26,78.0
1940-05-27,207.0
1940-05-28,186.0
1940-05-29,242.0
1940-05-30,822.0
1940-05-31,312.0
1940-06-01,324.0
1940-06-02,405.0
1940-06-03,442.0
1940-06-04,459.0
1940-06-05,442.0
1940-06-06,226.0
1940-06-07,240.0
1940-06-08,308.0
1940-06-09,262.0
1940-06-10,262.0
1940-06-11,117.0
1940-06-12,65.0
1940-06-13,52.0
1940-06-14,40.0
1940-06-15,40.0
1940-06-16,40.0
1940-06-17,56.0
1940-06-18,82.0
1940-06-19,153.0
1940-06-20,70.0
1940-06-21,36.0
1940-06-22,31.0
1940-06-23,60.0
1940-06-24,130.0
1940-06-25,52.0
1940-06-26,40.0
1940-06-27,33.0
1940-06-28,24.0
1940-06-29,21.0
1940-06-30,16.0
1940-07-01,13.0
1940-07-02,13.0
1940-07-03,14.0
1940-07-04,14.0
1940-07-05,66.0
1940-07-06,16.0
1940-07-07,17.0
1940-07-08,17.0
1940-07-09,27.0
1940-07-10,16.0
1940-07-11,27.0
1940-07-12,26.0
1940-07-13,20.0
1940-07-14,14.0
1940-07-15,13.0
1940-07-16,11.0
1940-07-17,13.0
1940-07-18,52.0
1940-07-19,65.0
1940-07-20,40.0
1940-07-21,30.0
1940-07-22,25.0
1940-07-23,18.0
1940-07-24,26.0
1940-07-25,45.0
1940-07-26,45.0
1940-07-27,169.0
1940-07-28,213.0
1940-07-29,105.0
1940-07-30,45.0
1940-07-31,350.0
1940-08-01,177.0
1940-08-02,70.0
1940-08-03,29.0
1940-08-04,17.0
1940-08-05,13.0
1940-08-06,11.0
1940-08-07,10.0
1940-08-08,10.0
1940-08-09,8.0
1940-08-10,9.0
1940-08-11,17.0
1940-08-12,39.0
1940-08-13,45.0
1940-08-14,43.0
1940-08-15,44.0
1940-08-16,42.0
1940-08-17,30.0
1940-08-18,25.0
1940-08-19,78.0
1940-08-20,97.0
1940-08-21,146.0
1940-08-22,44.0
1940-08-23,17.0
1940-08-24,14.0
1940-08-25,12.0
1940-08-26,11.0
1940-08-27,10.0
1940-08-28,8.0
1940-08-29,10.0
1940-08-30,11.0
1940-08-31,12.0
1940-09-01,11.0
1940-09-02,13.0
1940-09-03,22.0
1940-09-04,36.0
1940-09-05,176.0
1940-09-06,64.0
1940-09-07,25.0
1940-09-08,23.0
1940-09-09,23.0
1940-09-10,220.0
1940-09-11,681.0
1940-09-12,40.0
1940-09-13,37.0
1940-09-14,43.0
1940-09-15,59.0
1940-09-16,299.0
1940-09-17,115.0
1940-09-18,35.0
1940-09-19,21.0
1940-09-20,17.0
1940-09-21,18.0
1940-09-22,16.0
1940-09-23,12.0
1940-09-24,14.0
1940-09-25,276.0
1940-09-26,338.0
1940-09-27,453.0
1940-09-28,342.0
1940-09-29,204.0
1940-09-30,156.0
1940-10-01,182.0
1940-10-02,297.0
1940-10-03,147.0
1940-10-04,90.0
1940-10-05,61.0
1940-10-06,39.0
1940-10-07,30.0
1940-10-08,18.0
1940-10-09,12.0
1940-10-10,11.0
1940-10-11,9.0
1940-10-12,21.0
1940-10-13,32.0
1940-10-14,18.0
1940-10-15,23.0
1940-10-16,14.0
1940-10-17,15.0
1940-10-18,11.0
1940-10-19,10.0
1940-10-20,10.0
1940-10-21,14.0
1940-10-22,16.0
1940-10-23,12.0
1940-10-24,17.0
1940-10-25,31.0
1940-10-26,24.0
1940-10-27,14.0
1940-10-28,11.0
1940-10-29,11.0
1940-10-30,10.0
1940-10-31,10.0
1940-11-01,11.0
1940-11-02,10.0
1940-11-03,10.0
1940-11-04,9.0
1940-11-05,10.0
1940-11-06,10.0
1940-11-07,10.0
1940-11-08,9.0
1940-11-09,10.0
1940-11-10,10.0
1940-11-11,20.0
1940-11-12,146.0
1940-11-13,25.0
1940-11-14,28.0
1940-11-15,28.0
1940-11-16,52.0
1940-11-17,195.0
1940-11-18,196.0
1940-11-19,152.0
1940-11-20,147.0
1940-11-21,152.0
1940-11-22,138.0
1940-11-23,123.0
1940-11-24,121.0
1940-11-25,172.0
1940-11-26,156.0
1940-11-27,161.0
1940-11-28,147.0
1940-11-29,134.0
1940-11-30,114.0
1940-12-01,127.0
1940-12-02,100.0
1940-12-03,104.0
1940-12-04,86.0
1940-12-05,84.0
1940-12-06,66.0
1940-12-07,51.0
1940-12-08,51.0
1940-12-09,48.0
1940-12-10,44.0
1940-12-11,40.0
1940-12-12,31.0
1940-12-13,31.0
1940-12-14,51.0
1940-12-15,61.0
1940-12-16,71.0
1940-12-17,72.0
1940-12-18,76.0
1940-12-19,72.0
1940-12-20,66.0
1940-12-21,59.0
1940-12-22,123.0
1940-12-23,231.0
1940-12-24,289.0
1940-12-25,307.0
1940-12-26,287.0
1940-12-27,188.0
1940-12-28,164.0
1940-12-29,172.0
1940-12-30,143.0
1940-12-31,152.0
1941-01-01,149.0
1941-01-02,149.0
1941-01-03,143.0
1941-01-04,143.0
1941-01-05,132.0
1941-01-06,104.0
1941-01-07,108.0
1941-01-08,112.0
1941-01-09,110.0
1941-01-10,112.0
1941-01-11,123.0
1941-01-12,106.0
1941-01-13,110.0
1941-01-14,123.0
1941-01-15,140.0
1941-01-16,116.0
1941-01-17,94.0
1941-01-18,100.0
1941-01-19,102.0
1941-01-20,102.0
1941-01-21,102.0
1941-01-22,100.0
1941-01-23,100.0
1941-01-24,100.0
1941-01-25,94.0
1941-01-26,92.0
1941-01-27,104.0
1941-01-28,132.0
1941-01-29,141.0
1941-01-30,136.0
1941-01-31,121.0
1941-02-01,76.0
1941-02-02,62.0
1941-02-03,55.0
1941-02-04,78.0
1941-02-05,108.0
1941-02-06,98.0
1941-02-07,76.0
1941-02-08,72.0
1941-02-09,72.0
1941-02-10,82.0
1941-02-11,78.0
1941-02-12,66.0
1941-02-13,52.0
1941-02-14,69.0
1941-02-15,127.0
1941-02-16,108.0
1941-02-17,84.0
1941-02-18,51.0
1941-02-19,44.0
1941-02-20,39.0
1941-02-21,30.0
1941-02-22,25.0
1941-02-23,25.0
1941-02-24,30.0
1941-02-25,30.0
1941-02-26,29.0
1941-02-27,24.0
1941-02-28,21.0
1941-03-01,24.0
1941-03-02,22.0
1941-03-03,20.0
1941-03-04,18.0
1941-03-05,12.0
1941-03-06,13.0
1941-03-07,11.0
1941-03-08,10.0
1941-03-09,11.0
1941-03-10,116.0
1941-03-11,145.0
1941-03-12,177.0
1941-03-13,239.0
1941-03-14,159.0
1941-03-15,166.0
1941-03-16,119.0
1941-03-17,62.0
1941-03-18,26.0
1941-03-19,20.0
1941-03-20,17.0
1941-03-21,11.0
1941-03-22,10.0
1941-03-23,10.0
1941-03-24,10.0
1941-03-25,60.0
1941-03-26,353.0
1941-03-27,374.0
1941-03-28,319.0
1941-03-29,319.0
1941-03-30,308.0
1941-03-31,221.0
1941-04-01,188.0
1941-04-02,143.0
1941-04-03,185.0
1941-04-04,179.0
1941-04-05,159.0
1941-04-06,141.0
1941-04-07,138.0
1941-04-08,72.0
1941-04-09,45.0
1941-04-10,47.0
1941-04-11,37.0
1941-04-12,23.0
1941-04-13,18.0
1941-04-14,15.0
1941-04-15,41.0
1941-04-16,57.0
1941-04-17,57.0
1941-04-18,24.0
1941-04-19,36.0
1941-04-20,31.0
1941-04-21,22.0
1941-04-22,13.0
1941-04-23,14.0
1941-04-24,14.0
1941-04-25,12.0
1941-04-26,12.0
1941-04-27,13.0
1941-04-28,14.0
1941-04-29,53.0
1941-04-30,46.0
1941-05-01,66.0
1941-05-02,126.0
1941-05-03,132.0
1941-05-04,96.0
1941-05-05,65.0
1941-05-06,40.0
1941-05-07,33.0
1941-05-08,21.0
1941-05-09,18.0
1941-05-10,19.0
1941-05-11,17.0
1941-05-12,45.0
1941-05-13,16.0
1941-05-14,15.0
1941-05-15,23.0
1941-05-16,44.0
1941-05-17,26.0
1941-05-18,82.0
1941-05-19,134.0
1941-05-20,311.0
1941-05-21,424.0
1941-05-22,464.0
1941-05-23,548.0
1941-05-24,1540.0
1941-05-25,515.0
1941-05-26,123.0
1941-05-27,97.0
1941-05-28,86.0
1941-05-29,80.0
1941-05-30,65.0
1941-05-31,50.0
1941-06-01,82.0
1941-06-02,277.0
1941-06-03,270.0
1941-06-04,327.0
1941-06-05,186.0
1941-06-06,108.0
1941-06-07,233.0
1941-06-08,895.0
1941-06-09,244.0
1941-06-10,103.0
1941-06-11,117.0
1941-06-12,112.0
1941-06-13,72.0
1941-06-14,42.0
1941-06-15,108.0
1941-06-16,84.0
1941-06-17,30.0
1941-06-18,65.0
1941-06-19,52.0
1941-06-20,38.0
1941-06-21,40.0
1941-06-22,566.0
1941-06-23,697.0
1941-06-24,512.0
1941-06-25,423.0
1941-06-26,958.0
1941-06-27,927.0
1941-06-28,520.0
1941-06-29,358.0
1941-06-30,369.0
1941-07-01,170.0
1941-07-02,164.0
1941-07-03,240.0
1941-07-04,228.0
1941-07-05,316.0
1941-07-06,208.0
1941-07-07,125.0
1941-07-08,114.0
1941-07-09,84.0
1941-07-10,178.0
1941-07-11,227.0
1941-07-12,278.0
1941-07-13,478.0
1941-07-14,392.0
1941-07-15,602.0
1941-07-16,376.0
1941-07-17,678.0
1941-07-18,379.0
1941-07-19,368.0
1941-07-20,1170.0
1941-07-21,413.0
1941-07-22,344.0
1941-07-23,269.0
1941-07-24,286.0
1941-07-25,294.0
1941-07-26,224.0
1941-07-27,301.0
1941-07-28,185.0
1941-07-29,177.0
1941-07-30,188.0
1941-07-31,244.0
1941-08-01,336.0
1941-08-02,228.0
1941-08-03,108.0
1941-08-04,134.0
1941-08-05,177.0
1941-08-06,63.0
1941-08-07,40.0
1941-08-08,34.0
1941-08-09,23.0
1941-08-10,25.0
1941-08-11,47.0
1941-08-12,99.0
1941-08-13,462.0
1941-08-14,117.0
1941-08-15,110.0
1941-08-16,247.0
1941-08-17,372.0
1941-08-18,358.0
1941-08-19,363.0
1941-08-20,552.0
1941-08-21,510.0
1941-08-22,586.0
1941-08-23,510.0
1941-08-24,283.0
1941-08-25,239.0
1941-08-26,286.0
1941-08-27,1440.0
1941-08-28,1000.0
1941-08-29,177.0
1941-08-30,152.0
1941-08-31,123.0
1941-09-01,227.0
1941-09-02,263.0
1941-09-03,257.0
1941-09-04,215.0
1941-09-05,99.0
1941-09-06,86.0
1941-09-07,59.0
1941-09-08,43.0
1941-09-09,45.0
1941-09-10,54.0
1941-09-11,32.0
1941-09-12,23.0
1941-09-13,20.0
1941-09-14,19.0
1941-09-15,18.0
1941-09-16,19.0
1941-09-17,24.0
1941-09-18,16.0
1941-09-19,15.0
1941-09-20,15.0
1941-09-21,23.0
1941-09-22,926.0
1941-09-23,332.0
1941-09-24,209.0
1941-09-25,139.0
1941-09-26,105.0
1941-09-27,108.0
1941-09-28,309.0
1941-09-29,314.0
1941-09-30,395.0
1941-10-01,166.0
1941-10-02,140.0
1941-10-03,105.0
1941-10-04,94.0
1941-10-05,81.0
1941-10-06,81.0
1941-10-07,85.0
1941-10-08,75.0
1941-10-09,75.0
1941-10-10,59.0
1941-10-11,44.0
1941-10-12,57.0
1941-10-13,46.0
1941-10-14,48.0
1941-10-15,105.0
1941-10-16,132.0
1941-10-17,69.0
1941-10-18,57.0
1941-10-19,39.0
1941-10-20,41.0
1941-10-21,56.0
1941-10-22,239.0
1941-10-23,162.0
1941-10-24,5880.0
1941-10-25,2240.0
1941-10-26,869.0
1941-10-27,648.0
1941-10-28,461.0
1941-10-29,402.0
1941-10-30,398.0
1941-10-31,580.0
1941-11-01,619.0
1941-11-02,553.0
1941-11-03,542.0
1941-11-04,461.0
1941-11-05,461.0
1941-11-06,466.0
1941-11-07,356.0
1941-11-08,336.0
1941-11-09,691.0
1941-11-10,807.0
1941-11-11,754.0
1941-11-12,828.0
1941-11-13,869.0
1941-11-14,948.0
1941-11-15,807.0
1941-11-16,679.0
1941-11-17,602.0
1941-11-18,697.0
1941-11-19,666.0
1941-11-20,748.0
1941-11-21,862.0
1941-11-22,761.0
1941-11-23,666.0
1941-11-24,558.0
1941-11-25,761.0
1941-11-26,654.0
1941-11-27,558.0
1941-11-28,511.0
1941-11-29,511.0
1941-11-30,394.0
1941-12-01,471.0
1941-12-02,438.0
1941-12-03,332.0
1941-12-04,309.0
1941-12-05,476.0
1941-12-06,402.0
1941-12-07,316.0
1941-12-08,261.0
1941-12-09,247.0
1941-12-10,240.0
1941-12-11,452.0
1941-12-12,438.0
1941-12-13,373.0
1941-12-14,402.0
1941-12-15,411.0
1941-12-16,344.0
1941-12-17,290.0
1941-12-18,282.0
1941-12-19,205.0
1941-12-20,155.0
1941-12-21,138.0
1941-12-22,150.0
1941-12-23,364.0
1941-12-24,328.0
1941-12-25,340.0
1941-12-26,328.0
1941-12-27,340.0
1941-12-28,324.0
1941-12-29,356.0
1941-12-30,360.0
1941-12-31,328.0
1942-01-01,340.0
1942-01-02,348.0
1942-01-03,373.0
1942-01-04,335.0
1942-01-05,300.0
1942-01-06,260.0
1942-01-07,270.0
1942-01-08,330.0
1942-01-09,410.0
1942-01-10,500.0
1942-01-11,540.0
1942-01-12,560.0
1942-01-13,600.0
1942-01-14,660.0
1942-01-15,700.0
1942-01-16,670.0
1942-01-17,640.0
1942-01-18,590.0
1942-01-19,550.0
1942-01-20,510.0
1942-01-21,400.0
1942-01-22,290.0
1942-01-23,250.0
1942-01-24,300.0
1942-01-25,400.0
1942-01-26,500.0
1942-01-27,600.0
1942-01-28,680.0
1942-01-29,700.0
1942-01-30,691.0
1942-01-31,643.0
1942-02-01,703.0
1942-02-02,625.0
1942-02-03,564.0
1942-02-04,461.0
1942-02-05,429.0
1942-02-06,411.0
1942-02-07,344.0
1942-02-08,214.0
1942-02-09,224.0
1942-02-10,205.0
1942-02-11,128.0
1942-02-12,83.0
1942-02-13,61.0
1942-02-14,52.0
1942-02-15,65.0
1942-02-16,83.0
1942-02-17,96.0
1942-02-18,158.0
1942-02-19,639.0
1942-02-20,511.0
1942-02-21,373.0
1942-02-22,268.0
1942-02-23,208.0
1942-02-24,123.0
1942-02-25,130.0
1942-02-26,155.0
1942-02-27,145.0
1942-02-28,135.0
1942-03-01,192.0
1942-03-02,198.0
1942-03-03,261.0
1942-03-04,261.0
1942-03-05,373.0
1942-03-06,237.0
1942-03-07,155.0
1942-03-08,166.0
1942-03-09,142.0
1942-03-10,114.0
1942-03-11,75.0
1942-03-12,67.0
1942-03-13,57.0
1942-03-14,59.0
1942-03-15,56.0
1942-03-16,50.0
1942-03-17,56.0
1942-03-18,52.0
1942-03-19,46.0
1942-03-20,50.0
1942-03-21,44.0
1942-03-22,61.0
1942-03-23,33.0
1942-03-24,20.0
1942-03-25,23.0
1942-03-26,22.0
1942-03-27,17.0
1942-03-28,25.0
1942-03-29,52.0
1942-03-30,41.0
1942-03-31,33.0
1942-04-01,28.0
1942-04-02,28.0
1942-04-03,98.0
1942-04-04,195.0
1942-04-05,328.0
1942-04-06,161.0
1942-04-07,202.0
1942-04-08,234.0
1942-04-09,98.0
1942-04-10,56.0
1942-04-11,42.0
1942-04-12,46.0
1942-04-13,348.0
1942-04-14,919.0
1942-04-15,919.0
1942-04-16,1170.0
1942-04-17,774.0
1942-04-18,679.0
1942-04-19,2540.0
1942-04-20,6760.0
1942-04-21,11900.0
1942-04-22,6980.0
1942-04-23,6880.0
1942-04-24,11100.0
1942-04-25,20900.0
1942-04-26,19400.0
1942-04-27,12200.0
1942-04-28,9490.0
1942-04-29,8370.0
1942-04-30,7720.0
1942-05-01,9950.0
1942-05-02,8420.0
1942-05-03,7770.0
1942-05-04,6880.0
1942-05-05,9020.0
1942-05-06,6600.0
1942-05-07,6310.0
1942-05-08,5920.0
1942-05-09,6250.0
1942-05-10,6550.0
1942-05-11,6400.0
1942-05-12,6400.0
1942-05-13,6250.0
1942-05-14,5160.0
1942-05-15,4670.0
1942-05-16,3870.0
1942-05-17,3230.0
1942-05-18,2160.0
1942-05-19,2200.0
1942-05-20,2370.0
1942-05-21,1970.0
1942-05-22,2040.0
1942-05-23,2170.0
1942-05-24,2820.0
1942-05-25,3820.0
1942-05-26,3570.0
1942-05-27,3310.0
1942-05-28,3690.0
1942-05-29,3600.0
1942-05-30,3230.0
1942-05-31,3940.0
1942-06-01,2370.0
1942-06-02,1900.0
1942-06-03,1430.0
1942-06-04,1130.0
1942-06-05,958.0
1942-06-06,1030.0
1942-06-07,1450.0
1942-06-08,1800.0
1942-06-09,6880.0
1942-06-10,5940.0
1942-06-11,4540.0
1942-06-12,3380.0
1942-06-13,4730.0
1942-06-14,6670.0
1942-06-15,5360.0
1942-06-16,4350.0
1942-06-17,4100.0
1942-06-18,4560.0
1942-06-19,4350.0
1942-06-20,4940.0
1942-06-21,5400.0
1942-06-22,6740.0
1942-06-23,5610.0
1942-06-24,4820.0
1942-06-25,4220.0
1942-06-26,3360.0
1942-06-27,2840.0
1942-06-28,2320.0
1942-06-29,1730.0
1942-06-30,1480.0
1942-07-01,2320.0
1942-07-02,3160.0
1942-07-03,2180.0
1942-07-04,2510.0
1942-07-05,2530.0
1942-07-06,1740.0
1942-07-07,713.0
1942-07-08,1020.0
1942-07-09,660.0
1942-07-10,454.0
1942-07-11,475.0
1942-07-12,1080.0
1942-07-13,508.0
1942-07-14,362.0
1942-07-15,196.0
1942-07-16,116.0
1942-07-17,287.0
1942-07-18,543.0
1942-07-19,673.0
1942-07-20,782.0
1942-07-21,1340.0
1942-07-22,641.0
1942-07-23,497.0
1942-07-24,585.0
1942-07-25,371.0
1942-07-26,399.0
1942-07-27,423.0
1942-07-28,713.0
1942-07-29,503.0
1942-07-30,418.0
1942-07-31,428.0
1942-08-01,464.0
1942-08-02,418.0
1942-08-03,1100.0
1942-08-04,543.0
1942-08-05,183.0
1942-08-06,196.0
1942-08-07,147.0
1942-08-08,597.0
1942-08-09,555.0
1942-08-10,409.0
1942-08-11,320.0
1942-08-12,193.0
1942-08-13,102.0
1942-08-14,2390.0
1942-08-15,4260.0
1942-08-16,4970.0
1942-08-17,373.0
1942-08-18,311.0
1942-08-19,220.0
1942-08-20,291.0
1942-08-21,531.0
1942-08-22,362.0
1942-08-23,242.0
1942-08-24,155.0
1942-08-25,109.0
1942-08-26,94.0
1942-08-27,74.0
1942-08-28,61.0
1942-08-29,139.0
1942-08-30,116.0
1942-08-31,87.0
1942-09-01,136.0
1942-09-02,2190.0
1942-09-03,423.0
1942-09-04,177.0
1942-09-05,128.0
1942-09-06,139.0
1942-09-07,126.0
1942-09-08,100.0
1942-09-09,96.0
1942-09-10,118.0
1942-09-11,118.0
1942-09-12,116.0
1942-09-13,217.0
1942-09-14,164.0
1942-09-15,72.0
1942-09-16,62.0
1942-09-17,59.0
1942-09-18,64.0
1942-09-19,61.0
1942-09-20,61.0
1942-09-21,74.0
1942-09-22,68.0
1942-09-23,121.0
1942-09-24,114.0
1942-09-25,252.0
1942-09-26,362.0
1942-09-27,409.0
1942-09-28,287.0
1942-09-29,193.0
1942-09-30,186.0
1942-10-01,167.0
1942-10-02,187.0
1942-10-03,204.0
1942-10-04,180.0
1942-10-05,154.0
1942-10-06,154.0
1942-10-07,154.0
1942-10-08,144.0
1942-10-09,141.0
1942-10-10,130.0
1942-10-11,121.0
1942-10-12,114.0
1942-10-13,123.0
1942-10-14,121.0
1942-10-15,138.0
1942-10-16,149.0
1942-10-17,257.0
1942-10-18,1280.0
1942-10-19,782.0
1942-10-20,243.0
1942-10-21,190.0
1942-10-22,146.0
1942-10-23,100.0
1942-10-24,152.0
1942-10-25,149.0
1942-10-26,103.0
1942-10-27,72.0
1942-10-28,58.0
1942-10-29,50.0
1942-10-30,47.0
1942-10-31,47.0
1942-11-01,60.0
1942-11-02,98.0
1942-11-03,85.0
1942-11-04,72.0
1942-11-05,67.0
1942-11-06,72.0
1942-11-07,211.0
1942-11-08,334.0
1942-11-09,272.0
1942-11-10,103.0
1942-11-11,81.0
1942-11-12,64.0
1942-11-13,64.0
1942-11-14,72.0
1942-11-15,69.0
1942-11-16,69.0
1942-11-17,69.0
1942-11-18,69.0
1942-11-19,78.0
1942-11-20,119.0
1942-11-21,264.0
1942-11-22,229.0
1942-11-23,107.0
1942-11-24,100.0
1942-11-25,107.0
1942-11-26,105.0
1942-11-27,87.0
1942-11-28,80.0
1942-11-29,78.0
1942-11-30,154.0
1942-12-01,300.0
1942-12-02,276.0
1942-12-03,116.0
1942-12-04,94.0
1942-12-05,96.0
1942-12-06,170.0
1942-12-07,173.0
1942-12-08,249.0
1942-12-09,204.0
1942-12-10,138.0
1942-12-11,125.0
1942-12-12,121.0
1942-12-13,146.0
1942-12-14,276.0
1942-12-15,276.0
1942-12-16,284.0
1942-12-17,260.0
1942-12-18,296.0
1942-12-19,305.0
1942-12-20,296.0
1942-12-21,288.0
1942-12-22,208.0
1942-12-23,167.0
1942-12-24,461.0
1942-12-25,658.0
1942-12-26,618.0
1942-12-27,518.0
1942-12-28,590.0
1942-12-29,604.0
1942-12-30,672.0
1942-12-31,773.0
1943-01-01,852.0
1943-01-02,836.0
1943-01-03,765.0
1943-01-04,750.0
1943-01-05,721.0
1943-01-06,611.0
1943-01-07,584.0
1943-01-08,537.0
1943-01-09,551.0
1943-01-10,525.0
1943-01-11,537.0
1943-01-12,570.0
1943-01-13,551.0
1943-01-14,423.0
1943-01-15,368.0
1943-01-16,358.0
1943-01-17,330.0
1943-01-18,300.0
1943-01-19,210.0
1943-01-20,300.0
1943-01-21,520.0
1943-01-22,950.0
1943-01-23,1500.0
1943-01-24,1290.0
1943-01-25,1060.0
1943-01-26,1030.0
1943-01-27,877.0
1943-01-28,728.0
1943-01-29,577.0
1943-01-30,544.0
1943-01-31,505.0
1943-02-01,439.0
1943-02-02,402.0
1943-02-03,324.0
1943-02-04,232.0
1943-02-05,183.0
1943-02-06,324.0
1943-02-07,123.0
1943-02-08,114.0
1943-02-09,100.0
1943-02-10,94.0
1943-02-11,92.0
1943-02-12,92.0
1943-02-13,89.0
1943-02-14,105.0
1943-02-15,116.0
1943-02-16,246.0
1943-02-17,288.0
1943-02-18,314.0
1943-02-19,413.0
1943-02-20,173.0
1943-02-21,141.0
1943-02-22,144.0
1943-02-23,144.0
1943-02-24,128.0
1943-02-25,121.0
1943-02-26,149.0
1943-02-27,167.0
1943-02-28,154.0
1943-03-01,190.0
1943-03-02,240.0
1943-03-03,230.0
1943-03-04,340.0
1943-03-05,387.0
1943-03-06,456.0
1943-03-07,597.0
1943-03-08,828.0
1943-03-09,686.0
1943-03-10,466.0
1943-03-11,478.0
1943-03-12,445.0
1943-03-13,461.0
1943-03-14,511.0
1943-03-15,478.0
1943-03-16,272.0
1943-03-17,284.0
1943-03-18,232.0
1943-03-19,208.0
1943-03-20,324.0
1943-03-21,382.0
1943-03-22,429.0
1943-03-23,402.0
1943-03-24,324.0
1943-03-25,300.0
1943-03-26,211.0
1943-03-27,81.0
1943-03-28,65.0
1943-03-29,65.0
1943-03-30,57.0
1943-03-31,55.0
1943-04-01,55.0
1943-04-02,60.0
1943-04-03,58.0
1943-04-04,57.0
1943-04-05,50.0
1943-04-06,33.0
1943-04-07,28.0
1943-04-08,37.0
1943-04-09,160.0
1943-04-10,296.0
1943-04-11,239.0
1943-04-12,257.0
1943-04-13,160.0
1943-04-14,74.0
1943-04-15,53.0
1943-04-16,45.0
1943-04-17,37.0
1943-04-18,33.0
1943-04-19,33.0
1943-04-20,36.0
1943-04-21,33.0
1943-04-22,31.0
1943-04-23,23.0
1943-04-24,29.0
1943-04-25,23.0
1943-04-26,27.0
1943-04-27,19.0
1943-04-28,16.0
1943-04-29,14.0
1943-04-30,14.0
1943-05-01,21.0
1943-05-02,16.0
1943-05-03,25.0
1943-05-04,25.0
1943-05-05,29.0
1943-05-06,23.0
1943-05-07,74.0
1943-05-08,96.0
1943-05-09,144.0
1943-05-10,144.0
1943-05-11,80.0
1943-05-12,368.0
1943-05-13,604.0
1943-05-14,631.0
1943-05-15,461.0
1943-05-16,200.0
1943-05-17,98.0